Flag for U.S.A. Weather past 2 weeks in Barrow, Alaska, U.S.A.

Now
34 °F

Fog.


Feels Like: 27 °F
Forecast: 31 / 44 °F
Wind: 9 mph from East

Location: Post Rogers Memorial Airport

Current Time: Jul 29, 2014 at 11:31:54 PM

Latest Report: Jul 29, 2014 at 10:53 PM


Visibility: 3 mi

Pressure: 30.35 "Hg

Humidity: 97%

Dew point: 33 °F

Location of BarrowLocation

Historic Weather in Barrow — Graph

°F

Barrow temperature yesterday

Maximum temperature yesterday: 36 °F (at 6:53 PM)
Minimum temperature yesterday: 30 °F (at 2:53 AM)
Average temperature yesterday: 33 °F

Past Weeks' High & Low Weather Summary

 TemperatureHumidityPressure
High57 °F (Jul 16, 4:53 PM)100% (Jul 15, 3:00 AM)30.37 "Hg (Jul 15, 3:00 AM)
Low29 °F (Jul 15, 3:00 AM)66% (Jul 15, 3:53 PM)29.36 "Hg (Jul 21, 8:53 AM)
Average36 °F90%29.85 "Hg
* Reported Jul 14 9:53 PM — Jul 29 9:53 PM, Barrow, Weather by CustomWeather, © 2014

Note: Actual official high and low records may vary slightly from our data, if they occured in-between our weather recording intervals... More about our weather records

Advertising

Barrow weather history for previous 24 hours

 ConditionsComfort  
Time TempWeatherWind HumidityBarometerVisibility
9:53 PM
Jul 29
34 °FLow clouds.10 mph92%30.35 "Hg9 mi
9:04 PM34 °FFog.9 mph92%30.36 "Hg3 mi
8:53 PM34 °FFog.8 mph97%30.37 "Hg2 mi
7:53 PM36 °FLow clouds.8 mph89%30.37 "Hg9 mi
6:53 PM37 °FFog.8 mph86%30.37 "Hg6 mi
5:53 PM36 °FFog.8 mph89%30.37 "Hg6 mi
4:53 PM36 °FFog.7 mph89%30.37 "Hg6 mi
3:53 PM37 °FPartly sunny.6 mph86%30.37 "Hg10 mi
2:53 PM35 °FFog.6 mph92%30.37 "Hg4 mi
1:53 PM34 °FFog.6 mph92%30.37 "Hg1 mi
1:00 PM36 °FPartly sunny.8 mph85%30.37 "Hg10 mi
11:53 AM37 °FScattered clouds.8 mph82%30.37 "Hg10 mi
10:53 AM37 °FPassing clouds.9 mph82%30.37 "Hg10 mi
9:53 AM36 °FScattered clouds.12 mph85%30.37 "Hg10 mi
8:53 AM36 °FScattered clouds.12 mph85%30.36 "Hg10 mi
7:53 AM37 °FBroken clouds.12 mph82%30.36 "Hg10 mi
6:53 AM37 °FBroken clouds.14 mph76%30.36 "Hg10 mi
5:53 AM37 °FBroken clouds.13 mph79%30.36 "Hg10 mi
4:53 AM36 °FBroken clouds.10 mph82%30.36 "Hg10 mi
3:53 AM36 °FOvercast.9 mph79%30.35 "Hg10 mi
2:53 AM36 °FPartly sunny.9 mph75%30.35 "Hg10 mi
1:53 AM35 °FBroken clouds.9 mph82%30.36 "Hg10 mi
12:53 AM35 °FPartly sunny.7 mph78%30.36 "Hg10 mi
11:53 PM
Jul 28
35 °FOvercast.7 mph78%30.37 "Hg10 mi
Weather by CustomWeather, © 2014

See weather overviewHow to use our weather pages